Find Starlink 31863

NORAD ID: 59789 Int'l Des: 2024-093 Owner: SPXS Country: US Constellation: starlink operational
LEOCIRCULAR

Current View

Loading 3D Globe...

About Starlink 31863

Starlink 31863 (NORAD 59789) is a starlink constellation satellite (v2 mini) launched May 18, 2024 by SPXS of US. It operates in LEO, CIRCULAR orbit with a mass of 730.00 kg.

Upcoming Passes

Passes for default location (London). Set your location on the main map for personalized predictions.

Altitude History

Loading altitude history...

Two-Line Element Set

1 59789U 24093H 26236.37280387 -.00002168 00000-0 -69286-4 0 9997
2 59789 43.0002 341.6311 0001420 260.1516 99.9175 15.27584493128342
Epoch: Aug 24, 2026 • Age: 16 hours

Current Status

Altitude 483.5 km
Apogee / Perigee N/A
Velocity 7.63 km/s
Sub-Earth Point 24.29°N, 21.35°E
Launch Date May 18, 2024
Age 2.2 years
Type internet

Technical Details

Classification Payload
Mass 730.00 kg
Dry Mass 700.00 kg
Total Mass 730.00 kg
Length 0.30 m
Diameter 4.10 m
Span 29.00 m
Shape Box + pan
Manufacturer SPXS
Bus Type Starlink V2M
Phase Status In Orbit
Owner/State SPXS/US

Most Searched